陶都论坛

 找回密码
 注册会员

QQ登录

只需一步,快速开始

收藏本版 (4) |订阅

『车行天下』 今日: 2 |主题: 10736|排名: 12 

版主: Lucifer, 圈哥
作者 回复/查看 最后发表
[新车介绍] 全新ES丨穿梭于都市间,享受速度与激情 attach_img 2008嘟嘟 2018-9-3 06779 2008嘟嘟 2018-9-3 15:38
[汽车杂谈] 奇瑞集团8月销量61845辆 同比增长32.7% attach_img 臭鱼烂虾 2018-9-3 06113 臭鱼烂虾 2018-9-3 15:35
[新车介绍] 【宜兴福特】11.58万起 新一代福克斯全面开启预售 attach_img 宜兴福特4S店 2018-9-3 06024 宜兴福特4S店 2018-9-3 11:11
[4S店活动] 【鹏龙·招募】2018梅赛德斯-奔驰GLA SUV荣耀之旅第四季等你来战 attach_img 韩流风 2018-9-2 05259 韩流风 2018-9-2 16:55
[新车介绍] 为出色而生,奇瑞艾瑞泽GX开启全球预售,7.99万元起 attach_img 臭鱼烂虾 2018-9-1 07531 臭鱼烂虾 2018-9-1 14:45
[新车介绍] 【宜兴福特】新一代福克斯预售盛大启动! attach_img 宜兴福特4S店 2018-8-31 011524 宜兴福特4S店 2018-8-31 13:44
[新车介绍] 【宜兴福特】这场20岁的成人礼,邀你一起见证 attach_img 宜兴福特4S店 2018-8-30 39785 宜兴福特4S店 2018-8-31 13:32
[车族活动] 宜兴有卡罗拉车友威信群吗 新人帖 七海千秋 2018-8-30 310918 你就是一头猪 2018-8-30 20:22
[汽车杂谈] 【宜兴君爵】跟莫兰迪色比高级?看潮咖自由侠领衔18秋冬潮流色 宜兴君爵4S店 2018-8-30 05276 宜兴君爵4S店 2018-8-30 16:12
[4S店活动] 【宜兴君爵】开学购车选Jeep 师生到店有好礼 宜兴君爵4S店 2018-8-30 05293 宜兴君爵4S店 2018-8-30 16:09
[4S店活动] 星生活之旅·驭马自由行,勇敢觉醒! attach_img 麦蒂 2018-8-30 05918 麦蒂 2018-8-30 14:07
[4S店活动] 这篇文章值得你点开。 attach_img 宜兴利星奔驰4S店 2018-8-30 09096 宜兴利星奔驰4S店 2018-8-30 11:10
[4S店活动] Local Secrets | 米兰街头,为什么大牌都主动为 smart 让路? attach_img 宜兴利星奔驰4S店 2018-8-30 06184 宜兴利星奔驰4S店 2018-8-30 11:05
[4S店活动] 敢来这里打卡?先亮出你的真面目! attach_img 宜兴利星奔驰4S店 2018-8-30 04235 宜兴利星奔驰4S店 2018-8-30 11:00
[新车介绍] 售价25.97-39.97万元 新豪华运动SUV 凯迪拉克XT4燃情上市 luseafer 2018-8-30 08175 luseafer 2018-8-30 10:55
[4S店活动] 巅峰对决,无限量开启! attach_img 宜兴利星奔驰4S店 2018-8-30 03902 宜兴利星奔驰4S店 2018-8-30 10:52
[新车介绍] “宜兴天汇”凯迪拉克XT4上市-欢迎预定 luseafer 2018-8-30 06069 luseafer 2018-8-30 10:46
[新车介绍] 售28.88-39.58万元 国产捷豹E-PACE上市 attach_img 宜兴路德行4S店 2018-8-30 05815 宜兴路德行4S店 2018-8-30 10:41
[新车介绍] 1天后新一代福克斯售价公布 attach_img 宜兴福特4S店 2018-8-30 04894 宜兴福特4S店 2018-8-30 09:46
[4S店活动] 速度,是全球通用语言 attach_img 宜兴利星奔驰4S店 2018-8-30 03402 宜兴利星奔驰4S店 2018-8-30 09:39
[4S店活动] 开学就要用新的|宜兴利星车主们真的不进来看看吗? attach_img 宜兴利星奔驰4S店 2018-8-30 03435 宜兴利星奔驰4S店 2018-8-30 09:11
[4S店活动] 给你一个和大佬们面对面的机会 attach_img 宜兴利星奔驰4S店 2018-8-29 07098 宜兴利星奔驰4S店 2018-8-29 14:05
[4S店活动] 【9.1】环科园利星奔驰缤纷开学季,购车有好礼! attach_img 宜兴利星奔驰4S店 2018-8-29 05192 宜兴利星奔驰4S店 2018-8-29 09:47
[汽车杂谈] 【宜兴福特】秒懂爱车 踩油门踩到脚酸腿麻怎么办! 宜兴福特4S店 2018-8-29 03387 宜兴福特4S店 2018-8-29 09:21
[汽车杂谈] 【宜兴福特】哇塞,这个弯道写了Focus的名字! 宜兴福特4S店 2018-8-28 02563 宜兴福特4S店 2018-8-28 13:49
[新车介绍] 新一代福克斯即将来袭 attach_img 宜兴福特4S店 2018-8-28 03008 宜兴福特4S店 2018-8-28 13:29
[新车介绍] 雪佛兰沃兰多以创新互联科技打造出行新体验 attach_img 宜兴汇通 2018-8-28 03997 宜兴汇通 2018-8-28 09:02
[4S店活动] 荣放自驾游安吉 attach_img 吃橘子的兔子 2018-8-27 05417 吃橘子的兔子 2018-8-27 14:07
[汽车杂谈] 【宜兴福特】未来的高端生活 其实就在你身边 宜兴福特4S店 2018-8-26 04002 宜兴福特4S店 2018-8-26 13:57
[4S店活动] 【宜兴福特】8月最后一波福利,安排上了 宜兴福特4S店 2018-8-25 06500 宜兴福特4S店 2018-8-25 17:41
[新车介绍] 豹力!美学!平衡! attach_img 宜兴路德行4S店 2018-8-24 25846 宜兴路德行4S店 2018-8-25 16:41
[新车介绍] 满满英伦风,新能源标杆捷豹I-PACE attach_img 宜兴路德行4S店 2018-8-25 04800 宜兴路德行4S店 2018-8-25 11:08
[新车介绍] 【宜兴君爵】除了“蚂蚁” 0.2s变身超级英雄的还有TA 宜兴君爵4S店 2018-8-25 04162 宜兴君爵4S店 2018-8-25 10:57
[4S店活动] 【宜兴君爵】月末冲量享钜惠 开学Jeep有好礼 宜兴君爵4S店 2018-8-25 03561 宜兴君爵4S店 2018-8-25 10:54
[新车介绍] 7万元高品质SUV 哈弗H2s风尚/智尚型惊爆上市 新人帖 attach_img 口合口合 2018-8-24 07186 口合口合 2018-8-24 16:14
[车族活动] 荣放自驾游活动圆满成功 新人帖 attach_img 吃橘子的兔子 2018-8-24 04349 吃橘子的兔子 2018-8-24 11:15
[街拍炫车] 彩贴坊出品:我们大宜兴 首台粉猪 彩贴坊欢妹 2018-8-24 07873 彩贴坊欢妹 2018-8-24 08:41
[4S店活动] 【宜兴福特】这skr你想象不到的福特商城,赶紧来探索吧! attach_img 宜兴福特4S店 2018-8-23 04924 宜兴福特4S店 2018-8-23 20:08
[新车介绍] 全新ES丨追逐激情,亦不忘拥抱自然 attach_img 2008嘟嘟 2018-8-23 05772 2008嘟嘟 2018-8-23 10:07
[汽车杂谈] 为什么人生的第一部车,都选C-HR! 广汽丰田轸村店 2018-8-23 07561 广汽丰田轸村店 2018-8-23 09:21
下一页 »

快速发帖

还可输入 80 个字符
您需要登录后才可以发帖 登录 | 注册会员

本版积分规则

Archiver|关于我们|陶都论坛 ( ICPB2-20120265 ICP11066580-2 )

苏公网安备 32028202000860号

GMT+8, 2019-2-17 20:32 , Processed in 0.020105 second(s), 6 queries , Gzip On, Yac On.

Powered by Discuz! X3.4

© 2001-2017 Comsenz Inc.

返回顶部 返回版块